Regional Weather Roundup
Issued by NWS

Home | Current Version | Previous Version | Graphics & Text | Print | Product List | Glossary On
Versions: 1 2 3 4 5 6 7 8 9 10 11 12 13 14 15 16 17 18 19 20 21 22 23 24 25 26 27 28 29 30 31 32 33 34 35 36 37 38 39 40 41 42 43 44 45 46 47 48 49 50
000
ASUS43 KIND 300009
RWRIN

WEATHER ROUNDUP FOR INDIANA
NATIONAL WEATHER SERVICE INDIANAPOLIS IN
800 PM EDT WED MAR 29 2017

NOTE: "FAIR" INDICATES FEW OR NO CLOUDS BELOW 12,000 FEET WITH NO
SIGNIFICANT WEATHER AND/OR OBSTRUCTIONS TO VISIBILITY.

* - STATION DOES NOT REPORT WEATHER SUCH AS PRECIPITATION OR FOG.

+ - STATION NOT QUALITY CONTROLLED BY THE NATIONAL WEATHER SERVICE.
    USE DATA WITH CAUTION...ESPECIALLY DEWPOINT AND RELATIVE
    HUMIDITY OBSERVATIONS.

INZ001>003-010>013-019-020-300100-
NORTHWEST INDIANA

CITY           SKY/WX    TMP DP  RH WIND       PRES   REMARKS
GARY /AIRPORT/ LGT RAIN  52  36  54 E12G23    30.07S
KNOX *+        CLOUDY    52  12  20 E21       30.05F
LA PORTE +     CLOUDY    51  35  54 E16G23    30.06F
6HR MIN TEMP:  51; 6HR MAX TEMP:  57;

MICHIGAN CITY+ DRIZZLE   52  32  46 E10G20    30.06F
MONTICELLO +   CLOUDY    54  37  53 E15G25    30.02F
6HR MIN TEMP:  54; 6HR MAX TEMP:  58;

RENSSELAER +   CLOUDY    54  37  54 E21G28    30.03S
VALPARAISO     CLOUDY    52  40  63 E14       30.05F
6HR MIN TEMP:  51; 6HR MAX TEMP:  60; 6HR PCP: TRACE;


$$

LMZ046-743>745-300100-
SOUTHERN LAKE MICHIGAN

STATION/POSITION TIME  TEMP    WIND        PRES    WAVE
                       AIR SEA DIR/SP/G            HT
                 (UTC) (F)     (DEG/KT/KT) (MB)    (FT)
BURNS HARBOR     0001   52     100/ 15     1019.0
MICHIGAN CITY    2340   53      70/ 18/ 22   N/A

$$

INZ004-005-014>016-021>024-300100-
NORTH CENTRAL INDIANA

CITY           SKY/WX    TMP DP  RH WIND       PRES   REMARKS
ELKHART        PTCLDY    52  32  46 E16       30.08F
GOSHEN         CLOUDY    50  29  44 E21G28    30.10S
6HR MIN TEMP:  50; 6HR MAX TEMP:  57;

LOGANSPORT +   CLOUDY    52  37  58 E21G26    30.06F
PERU/GRISSOM   CLOUDY    54  39  57 E18G24    30.03F
6HR MIN TEMP:  54; 6HR MAX TEMP:  58;

ROCHESTER +    MOCLDY    55  36  47 E23       30.07F
SOUTH BEND     CLOUDY    51  32  48 E18G30    30.09S
6HR MIN TEMP:  51; 6HR MAX TEMP:  57;

WARSAW +       CLOUDY    50  32  50 E17G23    30.09F

$$

INZ006>009-017-018-025>027-300100-
NORTHEAST INDIANA

CITY           SKY/WX    TMP DP  RH WIND       PRES   REMARKS
ANGOLA *+      MOCLDY    48  36  61 E17       30.13F
AUBURN +       MOCLDY    50  32  50 E16       30.15R
FORT WAYNE     MOCLDY    50  32  50 E21G29    30.12F
6HR MIN TEMP:  50; 6HR MAX TEMP:  58;

HUNTINGTON +   CLOUDY    50  32  50 E12G18    30.12R
6HR MIN TEMP:  50; 6HR MAX TEMP:  57;

KENDALLVILLE + CLOUDY    49  32  52 E13G18    30.12F

$$

INZ028-029-035-036-043>045-051>053-300100-
WEST CENTRAL INDIANA

CITY           SKY/WX    TMP DP  RH WIND       PRES   REMARKS
CRAWFORDSVL +  MOCLDY    55  43  65 E15G23    30.01F
6HR MIN TEMP:  54; 6HR MAX TEMP:  58;

GREENCASTLE +  CLOUDY    55  45  67 E13       30.01F
LAFAYETTE      CLOUDY    55  41  59 E22G30    30.02S
6HR MIN TEMP:  55; 6HR MAX TEMP:  58; 6HR PCP: TRACE;

TERRE HAUTE    CLOUDY    57  45  64 E17G23    29.96F
6HR MIN TEMP:  57; 6HR MAX TEMP:  61;


$$

INZ030>032-037>040-046>048-054>057-064-065-300100-
CENTRAL INDIANA

CITY           SKY/WX    TMP DP  RH WIND       PRES   REMARKS
CP ATTERBURY + CLOUDY    55  45  67 E9        30.06R
COLUMBUS       CLOUDY    55  48  76 E9        30.05S
FRANKFORT +    CLOUDY    57  44  62 E21       30.04F
6HR MIN TEMP:  56; 6HR MAX TEMP:  60;

GREENWOOD *+   CLOUDY    58  45  62 E7        30.06R
6HR MIN TEMP:  52; 6HR MAX TEMP:  60;

INDIANAPOLIS   CLOUDY    58  41  53 E16G25    30.03R
6HR MIN TEMP:  54; 6HR MAX TEMP:  60;

-EAGLE CREEK   CLOUDY    59  40  49 E16G22    30.03R
6HR MIN TEMP:  53; 6HR MAX TEMP:  60;

KOKOMO +       CLOUDY    53  41  63 E18G29    30.06F
6HR MIN TEMP:  53; 6HR MAX TEMP:  58;

MARION +       CLOUDY    53  39  60 E17       30.07F
MT COMFORT *+  CLOUDY    55  43  62 E13       30.05S
SHELBYVILLE    CLOUDY    58  44  60 E10       30.06R
6HR MIN TEMP:  53; 6HR MAX TEMP:  61;

ZIONSVILLE +   CLOUDY    55  42  60 E16G23    30.04F
6HR MIN TEMP:  52; 6HR MAX TEMP:  59;


$$

INZ033-034-041-042-049-050-058-059-300100-
EAST CENTRAL INDIANA

CITY           SKY/WX    TMP DP  RH WIND       PRES   REMARKS
MUNCIE         CLOUDY    55  41  59 E13       30.08R
6HR MIN TEMP:  55; 6HR MAX TEMP:  61;

RICHMOND +     PTCLDY    54  41  62 E10       30.08S

$$

INZ060-061-067>069-081>083-085>088-300100-
SOUTHWEST INDIANA

CITY           SKY/WX    TMP DP  RH WIND       PRES   REMARKS
EVANSVILLE     PTCLDY    66  52  60 E12       29.92R
6HR MIN TEMP:  66; 6HR MAX TEMP:  71;

HUNTINGBURG *+ PTCLDY    64  51  62 E10       29.94F
6HR MIN TEMP:  64; 6HR MAX TEMP:  67;

WASHINGTON +   PTCLDY    61  48  63 CALM      29.95F
6HR MIN TEMP:  57; 6HR MAX TEMP:  64;


$$

INZ062-063-066-070>080-084-089>092-300100-
SOUTH CENTRAL AND SOUTHEAST INDIANA

CITY           SKY/WX    TMP DP  RH WIND       PRES   REMARKS
BEDFORD +      CLOUDY    61  46  59 E13       30.00
BLOOMINGTON    PTCLDY    59  45  59 E14G21    29.99F
6HR MIN TEMP:  56; 6HR MAX TEMP:  64;

MADISON *+     PTCLDY    57  45  62 NE12      30.06R
NORTH VERNON + CLEAR     59  46  63 E10       30.05R
SEYMOUR +      CLOUDY    61  46  59 E9        30.03R

$$




USA.gov is the U.S. government's official web portal to all federal, state and local government web resources and services.